CW0565 Weather Reports


time (UTC)temp
F
wind
direction
speed
knots
gust
knots
rain 1hr
in
rain 24hr
in
rain mn
in
humidity
%
barometer
mb
20260901034523 48 360 0.9 3.5 0.00 0.00 0.00 96 1006.6
20260901033010 47 360 1.7 3.5 0.00 0.00 0.00 96 1006.5
20260901030012 48 5 1.7 4.3 0.00 0.00 0.00 95 1006.3
20260901024510 48 13 0.9 3.5 0.00 0.00 0.00 95 1006.4
20260901023009 48 13 0.0 1.7 0.00 0.00 0.00 95 1006.4
20260901021510 48 13 0.9 3.5 0.00 0.00 0.00 95 1006.2
20260901014509 49 15 1.7 3.5 0.00 0.00 0.00 94 1006.2
20260901013010 49 24 1.7 4.3 0.00 0.00 0.00 93 1006.1
20260901011509 49 25 0.9 3.5 0.00 0.00 0.00 93 1006.0
20260901010020 49 19 1.7 4.3 0.00 0.00 0.00 93 1005.9
20260901004517 50 164 0.0 1.7 0.00 0.00 0.00 92 1005.9
20260901003012 50 164 0.0 2.6 0.00 0.00 0.00 92 1005.9
20260901001514 50 165 0.0 0.0 0.00 0.00 0.00 92 1005.7
20260831234510 51 163 0.0 0.0 0.00 0.00 0.00 91 1005.8
20260831233009 51 164 0.0 0.0 0.00 0.00 0.00 90 1005.8
20260831231511 51 164 0.0 2.6 0.00 0.00 0.00 89 1005.7
20260831224509 52 165 0.0 0.0 0.00 0.00 0.00 88 1005.7
20260831223010 53 164 0.0 0.0 0.00 0.00 0.00 87 1005.6
20260831221509 53 164 0.0 0.0 0.00 0.00 0.00 86 1005.7
20260831220010 54 164 0.0 0.0 0.00 0.00 0.00 85 1005.7
20260831214510 54 165 0.0 0.0 0.00 0.00 0.00 84 1005.7
20260831213009 55 164 0.0 0.0 0.00 0.00 0.00 82 1005.5
20260831211510 55 164 0.0 0.0 0.00 0.00 0.00 81 1005.5
20260831210024 56 164 0.0 0.0 0.00 0.00 0.00 80 1005.4
20260831204509 57 164 0.0 0.0 0.00 0.00 0.00 79 1005.3
20260831203011 58 165 0.0 0.0 0.00 0.00 0.00 77 1005.2
20260831201510 58 164 0.0 0.0 0.00 0.00 0.00 74 1005.0
20260831200010 59 163 0.0 0.0 0.00 0.00 0.00 71 1005.0
20260831194509 60 163 0.0 1.7 0.00 0.00 0.00 69 1004.8
20260831193024 61 163 0.0 1.7 0.00 0.00 0.00 67 1004.6
20260831191511 62 163 0.0 2.6 0.00 0.00 0.00 65 1004.5
20260831190011 63 164 0.9 3.5 0.00 0.00 0.00 64 1004.5
20260831184510 64 164 0.9 3.5 0.00 0.00 0.00 61 1004.3
20260831183013 65 163 1.7 6.1 0.00 0.00 0.00 59 1004.2
20260831181515 66 163 2.6 6.1 0.00 0.00 0.00 59 1004.0
20260831180011 66 161 1.7 4.3 0.00 0.00 0.00 58 1004.0
20260831174509 67 223 1.7 6.1 0.00 0.00 0.00 54 1003.9
20260831173016 67 200 1.7 7.0 0.00 0.00 0.00 56 1003.8
20260831171511 68 246 4.3 9.6 0.00 0.00 0.00 55 1003.8
20260831170010 70 194 1.7 7.0 0.00 0.00 0.00 51 1003.7
20260831164510 69 221 4.3 9.6 0.00 0.00 0.00 51 1003.6
20260831163009 68 191 4.3 8.7 0.00 0.00 0.00 58 1003.5
20260831161511 68 192 3.5 9.6 0.00 0.00 0.00 59 1003.4
20260831160014 67 140 4.3 8.7 0.00 0.00 0.00 61 1003.5
20260831153009 66 121 2.6 7.8 0.00 0.00 0.00 64 1003.6
20260831151509 65 141 5.2 9.6 0.00 0.00 0.00 65 1003.6
20260831150009 65 96 6.1 10.4 0.00 0.00 0.00 65 1003.4
20260831144509 66 137 5.2 12.2 0.00 0.00 0.00 64 1003.4
20260831143009 66 155 6.1 14.8 0.00 0.00 0.00 62 1003.4
20260831141509 68 116 8.7 13.9 0.00 0.00 0.00 58 1003.3
20260831140009 68 148 3.5 8.7 0.00 0.00 0.00 54 1003.3
20260831134509 68 175 4.3 8.7 0.00 0.00 0.00 51 1003.3
20260831133009 67 166 5.2 8.7 0.00 0.00 0.00 59 1003.4
20260831131510 65 143 3.5 7.8 0.00 0.00 0.00 64 1003.4
20260831130009 64 189 6.1 9.6 0.00 0.00 0.00 66 1003.5
20260831124510 63 185 6.1 11.3 0.00 0.00 0.00 66 1003.6
20260831123014 64 188 5.2 9.6 0.00 0.00 0.00 64 1003.6
20260831121513 64 156 8.7 10.4 0.00 0.00 0.00 62 1003.6
20260831120011 64 161 6.1 10.4 0.00 0.00 0.00 62 1003.6
20260831114511 66 185 3.5 9.6 0.00 0.00 0.00 54 1003.4
20260831113010 65 129 6.1 13.0 0.00 0.00 0.00 59 1003.4
20260831111510 65 146 5.2 11.3 0.00 0.00 0.00 57 1003.4
20260831110013 66 148 3.5 6.1 0.00 0.00 0.00 55 1003.4
20260831104520 66 190 4.3 9.6 0.00 0.00 0.00 54 1003.5
20260831103015 65 163 5.2 9.6 0.00 0.00 0.00 54 1003.5
20260831101510 65 142 4.3 8.7 0.00 0.00 0.00 55 1003.7
20260831094527 64 170 6.1 8.7 0.00 0.00 0.00 58 1003.6
20260831093033 64 163 3.5 6.1 0.00 0.00 0.00 56 1003.6
20260831091509 63 169 3.5 7.0 0.00 0.00 0.00 59 1003.6
20260831081511 60 155 0.9 2.6 0.00 0.00 0.00 68 1003.9
20260831074510 64 155 0.0 1.7 0.00 0.00 0.00 62 1003.9
20260831073010 59 155 0.0 0.9 0.00 0.00 0.00 71 1004.0
20260831071525 60 157 0.0 0.9 0.00 0.00 0.00 71 1004.0
20260831070011 57 155 0.0 0.9 0.00 0.00 0.00 75 1004.1
20260831064509 56 155 0.0 1.7 0.00 0.00 0.00 80 1004.2
20260831054510 49 156 0.0 0.0 0.00 0.01 0.00 92 1004.3
20260831051516 48 155 1.7 4.3 0.00 0.01 0.00 90 1004.1
20260831044510 49 156 0.0 1.7 0.00 0.01 0.00 89 1004.1
20260831043010 50 155 0.0 2.6 0.00 0.01 0.00 88 1003.8